Starlink 2440

operational
NORAD ID: 48105 Int'l Des: 2021-027 Owner: SPXS Country: US Constellation: starlink
LEOCIRCULARSTARLINK_TYPE

About Starlink 2440

Description loading...

Live Position

Loading 3D Globe...

Upcoming Passes

Altitude History

Altitude vs Time

uPlot chart will show altitude changes over time

Two-Line Element Set

1 48105U 21027P 26101.85801086 .00000689 00000-0 35407-4 0 9992
2 48105 53.1609 306.9401 0001252 71.2663 288.8474 15.30188370278488
Epoch: Apr 11, 2026 • Age: 9 hours

Current Status

Altitude 476.0 km
Velocity 7.63 km/s
Sub-Earth Point -0.92°S, 14.09°E
Launch Date Apr 7, 2021
Age 5 years
Type internet

Technical Details

Classification Payload
Mass 260.00 kg
Dry Mass 248.00 kg
Total Mass 260.00 kg
Length 0.20 m
Diameter 2.80 m
Span 9.00 m
Shape Box + pan
Manufacturer SPXS
Bus Type Starlink
Phase Status In Orbit
Owner/State SPXS/US

Large Constellations

Loading constellations...